Milwaukee, WI

9:37 PM CDT on May 27, 2017 (GMT -0500)
Gen Mitchell International

Weather History for KMKE - March, 2014

Change the Weather History Date:

Wednesday, March 19, 2014

  Actual Average Record
Temperature  
Mean Temperature 37 °F 36 °F  
Max Temperature 40 °F 44 °F 76 °F (1921)
Min Temperature 34 °F 29 °F -3 °F (1923)
Degree Days  
Heating Degree Days 28 29  
Month to date heating degree days 730 608  
Since 1 July heating degree days 6386 5588  
Cooling Degree Days 0 0  
Month to date cooling degree days 0 0  
Year to date cooling degree days 0 0  
Moisture  
Dew Point 33 °F    
Average Humidity 80    
Maximum Humidity 100    
Minimum Humidity 59    
Precipitation  
Precipitation 0.07 in 0.07 in 1.56 in (1948)
Month to date precipitation 0.50 1.25  
Year to date precipitation 3.24 4.66  
Snow  
Snow T in 0.20 in 10.00 in (1881)
Month to date snowfall 5.8 5.3  
Since 1 July snowfall 62.6 43.1  
Snow Depth 0.00 in    
Sea Level Pressure  
Sea Level Pressure 29.69 in    
Wind  
Wind Speed 12 mph (WNW)    
Max Wind Speed 24 mph    
Max Gust Speed 34 mph    
Visibility 4 miles    
Events Fog , Rain    
T = Trace of Precipitation, MM = Missing Value Source: NWS Daily Summary

Daily Weather History Graph

Daily Weather History Graph

Search for Another Location

Airport or City:

Trip Planner

Search our weather history database for the weather conditions in past years. The results will help you decide how hot, cold, wet, or windy it might be!

Date:

Astronomy

Mar. 19, 2014 Rise Set
Actual Time 6:56 AM CDT 7:02 PM CDT
Civil Twilight 6:28 AM CDT 7:31 PM CDT
Nautical Twilight 5:55 AM CDT 8:04 PM CDT
Astronomical Twilight 5:21 AM CDT 8:38 PM CDT
Moon 10:26 PM CDT (3/19) 8:17 AM CDT (3/19)
Length of Visible Light 13h 02m
Length of Day
12h 06m
Waning Gibbous, 91% of the Moon is Illuminated
Mar 19
Waning Gibbous
Mar 23
Last Quarter
Mar 30
New
Apr 7
First Quarter
Apr 15
Full

Hourly Weather History & Observations

Time (CDT) Temp. Windchill Dew Point Humidity Pressure Visibility Wind Dir Wind Speed Gust Speed Precip Events Conditions
12:38 AM 37.0 °F 29.3 °F 32.0 °F 82% 29.69 in 6.0 mi SE 11.5 mph - N/A   Haze
12:52 AM 37.0 °F 29.3 °F 32.0 °F 82% 29.70 in 5.0 mi SE 11.5 mph - N/A   Haze
1:52 AM 37.0 °F 28.1 °F 33.1 °F 86% 29.67 in 3.0 mi SSE 15.0 mph - 0.00 in Rain Light Rain
1:59 AM 37.0 °F 29.3 °F 34.0 °F 89% 29.65 in 2.0 mi SSE 11.5 mph - 0.01 in Rain Light Rain
2:24 AM 37.0 °F 31.0 °F 35.1 °F 93% 29.64 in 1.8 mi SSE 8.1 mph - 0.03 in Rain Light Rain
2:37 AM 37.0 °F 31.0 °F 35.1 °F 93% 29.63 in 1.8 mi SSE 8.1 mph - 0.04 in Rain Light Rain
2:52 AM 37.0 °F 30.4 °F 36.0 °F 96% 29.65 in 2.0 mi SSE 9.2 mph - 0.04 in Rain Light Rain
3:33 AM 37.0 °F 33.3 °F 37.0 °F 100% 29.61 in 3.0 mi SSE 4.6 mph - 0.01 in Rain Light Rain
3:52 AM 37.0 °F 34.5 °F 36.0 °F 96% 29.62 in 3.0 mi SE 3.5 mph - 0.02 in Rain Light Rain
4:52 AM 37.9 °F 35.5 °F 36.0 °F 93% 29.61 in 3.0 mi South 3.5 mph - 0.00 in   Overcast
5:35 AM 37.9 °F - 36.0 °F 93% 29.58 in 3.0 mi Calm Calm - 0.00 in Rain Light Rain
5:52 AM 37.9 °F - 35.1 °F 89% 29.59 in 3.0 mi Calm Calm - 0.01 in Rain Light Rain
6:18 AM 37.9 °F - 37.0 °F 97% 29.57 in 4.0 mi Calm Calm - 0.00 in   Overcast
6:50 AM 37.4 °F 33.8 °F 35.6 °F 93% 29.57 in 2.0 mi NNW 4.6 mph - 0.00 in   Overcast
6:52 AM 37.0 °F 33.3 °F 35.1 °F 93% 29.59 in 2.0 mi NNW 4.6 mph - 0.00 in   Overcast
7:05 AM 37.9 °F - 36.0 °F 93% 29.58 in 2.0 mi Calm Calm - N/A   Overcast
7:13 AM 37.9 °F - 37.0 °F 97% 29.58 in 1.5 mi Calm Calm - N/A   Overcast
7:52 AM 37.9 °F - 36.0 °F 93% 29.60 in 1.5 mi Calm Calm - N/A   Overcast
8:52 AM 37.9 °F - 37.0 °F 97% 29.61 in 1.5 mi Calm Calm - N/A   Overcast
9:01 AM 37.9 °F - 37.0 °F 97% 29.59 in 1.2 mi Calm Calm - N/A   Overcast
9:13 AM 39.0 °F 35.7 °F 36.0 °F 89% 29.59 in 0.8 mi NNW 4.6 mph - N/A   Overcast
9:30 AM 37.9 °F 32.7 °F 36.0 °F 93% 29.59 in 0.8 mi NNW 6.9 mph - N/A   Overcast
9:52 AM 37.9 °F 32.1 °F 37.0 °F 97% 29.62 in 0.5 mi NW 8.1 mph - N/A Fog Fog
10:46 AM 37.4 °F 29.3 °F 35.6 °F 93% 29.61 in 1.0 mi NW 12.7 mph - N/A   Overcast
10:52 AM 37.9 °F 28.9 °F 36.0 °F 93% 29.63 in 1.0 mi NW 16.1 mph - N/A   Overcast
11:22 AM 39.0 °F 30.6 °F 36.0 °F 89% 29.62 in 2.0 mi NW 15.0 mph - 0.00 in   Overcast
11:29 AM 37.9 °F 28.9 °F 35.1 °F 89% 29.62 in 3.0 mi NW 16.1 mph - 0.00 in   Overcast
11:36 AM 37.9 °F 29.2 °F 35.1 °F 89% 29.62 in 3.0 mi NW 15.0 mph - 0.00 in   Mostly Cloudy
11:52 AM 37.9 °F 27.9 °F 34.0 °F 86% 29.65 in 4.0 mi NW 19.6 mph 27.6 mph 0.00 in   Overcast
12:52 PM 37.0 °F 28.1 °F 32.0 °F 82% 29.68 in 5.0 mi WNW 15.0 mph - 0.00 in   Overcast
1:52 PM 37.0 °F 28.1 °F 32.0 °F 82% 29.71 in 5.0 mi WNW 15.0 mph 23.0 mph 0.00 in   Haze
2:52 PM 37.9 °F 28.5 °F 32.0 °F 79% 29.73 in 6.0 mi WNW 17.3 mph 26.5 mph N/A   Haze
3:00 PM 39.0 °F 31.0 °F 32.0 °F 76% 29.71 in 6.0 mi WNW 13.8 mph 25.3 mph N/A   Haze
3:52 PM 39.0 °F 31.4 °F 32.0 °F 76% 29.75 in 6.0 mi WNW 12.7 mph 20.7 mph N/A   Haze
4:52 PM 39.0 °F 29.6 °F 32.0 °F 76% 29.79 in 7.0 mi WNW 18.4 mph 26.5 mph N/A   Overcast
5:52 PM 37.9 °F 29.2 °F 30.9 °F 76% 29.82 in 6.0 mi West 15.0 mph - N/A   Haze
6:52 PM 37.0 °F 27.7 °F 28.9 °F 73% 29.86 in 7.0 mi West 16.1 mph 23.0 mph N/A   Overcast
7:52 PM 36.0 °F 26.0 °F 27.0 °F 70% 29.87 in 10.0 mi WNW 17.3 mph 27.6 mph N/A   Overcast
8:52 PM 36.0 °F 25.6 °F 26.1 °F 67% 29.90 in 10.0 mi WNW 18.4 mph 28.8 mph N/A   Overcast
9:32 PM 35.1 °F 24.1 °F 25.0 °F 67% 29.89 in 10.0 mi WNW 19.6 mph 28.8 mph N/A   Overcast
9:52 PM 35.1 °F 25.9 °F 24.1 °F 64% 29.92 in 10.0 mi WNW 13.8 mph 32.2 mph N/A   Overcast
10:52 PM 35.1 °F 25.2 °F 24.1 °F 64% 29.94 in 10.0 mi WNW 16.1 mph 25.3 mph N/A   Overcast
11:52 PM 35.1 °F 25.2 °F 23.0 °F 61% 29.95 in 10.0 mi WNW 16.1 mph 26.5 mph N/A   Overcast